STARLINK-35415, 65885

Orbit data source: Space-Track

STARLINK-35415, 65885 is a payload satellite owned by SpaceX/Seattle (US) in LEO that was launched on Tue, 07 Oct 2025 UTC via an FALCON 9 launch vehicle from the Air Force Eastern Test Range (AFETR). Payload-class satellites include a variety of spacecraft equipped with specific instruments for various scientific and technological missions. These include communications satellites like Starlink; space stations such as the ISS; scientific satellites like the Hubble; Earth observation satellites from companies like Planet Labs, Umbra, and HawkEye 360; GPS; miniature CubeSats for education and research; and military/defense satellites.

Loading next visibility...
Identifier
65885, 2025-224D
Orbit
LEO
Country
Flag of USUS
Related business
Manufacturer
SpaceX/Seattle
Mission
Operational spacecraft
Bus & Motor
STARLINK V2MO, Unknown motor
Mass
575 kg wet, ~530 kg dry
Launch date (UTC)
2025-10-07 (1 month ago)
Launch vehicle
FALCON 9
Launch site
Air Force Eastern Test Range (AFETR)
Object type
Payload
Rocket body
Debris
Shape & HBR
Unknown shape, 17.7 m
Radar Cross Section
RCS unknown

Expand to show TLE details & history
Last TLE update: 2 days ago

TLE from 2 days ago
0 STARLINK-35415
1 65885U 25224D   25312.73766397  .00142742  00000-0  25213-2 0  9993
2 65885  53.1595 214.0380 0000980  63.0067 297.1042 15.49384012  6243
Epoch: 2025-11-08T17:42Z
TLE epoch observation values (Epoch: 2025-11-08T17:42:14.167Z)
Latitude
-0.00006°
Longitude
-99.68404°
Altitude
419.131 km
Speed
7.661 km/s
True Right ascension
14h 16m 09s
True Declination
0° 00' 00"
Sunlit
Object was in daylight at epoch
Visualization orbit readout
Latitude
Unknown
Longitude
Unknown
Altitude
Unknown
Speed
Unknown
Apparent Right ascension
Unknown
Apparent Declination
Unknown
Sunlit
N/A
Visualization observer readout
Local Sidereal Time
04:04:01
Azimuth
Unknown
Elevation
Unknown
Doppler factor
Unknown
Orbital elements
Apogee altitude
419.452 km
Perigee altitude
418.119 km
Semi-major axis
6,796.922 km
Eccentricity
0.0001
Inclination
53.1595°
RAAN
214.038°
Arg. of periapsis
63.0067°
True anomaly
297.0942°
Mean anomaly
297.1042°
Eccentric anomaly
297.0992°
Mean motion
3.87324 °/min
Orbital period
92.95 mins
BSTAR
0.0025213
Loading maneuver chart data...
Computing Atmospheric mass density...
Loading historical data...
Loading historical data...
Loading historical data...
Loading historical data...
Loading historical data...
Loading historical data...
Loading historical data...

Documentation

Showing up to 5 results
|